Location: Banios
(43.0451°N, 0.2335°E)
Time: 09:18:41
(UTC+00:00)

A-11 Canister half - Pass Details

Date: 14 May 2021
Orbit: 1527 x 1681 km, 47.3° (Epoch: 22 June)

Event Time Altitude Azimuth Distance (km) Brightness Sun altitude
Rises 08:42:38 0° 232° (SW) 4,702 11.3 42.9°
Reaches altitude 10° 08:45:39 10° 230° (SW) 3,736 10.9 43.4°
Maximum altitude 08:55:04 72° 149° (SSE) 1,657 10.4 45.0°
Drops below altitude 10° 09:04:51 10° 67° (ENE) 3,867 11.7 46.7°
Sets 09:08:01 0° 66° (ENE) 4,875 12.0 47.3°
